This demonstration page uses our WeatherBlox Daily Observations layout. Learn more.

Left ArrowRight Arrow

Hourly Observations for May 8, 2021

Temp ( °F °C ) Dew Point ( °F °C ) Humidity (%) Winds ( mph kmh ) Pressure ( in mb ) Visibility ( mi km ) Precip ( " mm )
12:53 am 00:53 Clear 68 20 55 12.8 63 63 SSE 10 17 29.76 1008 10 16 0.00 0.00
1:53 am 01:53 Clear 67 19.4 51 10.6 57 57 SE 7 11 29.74 1007 10 16 0.00 0.00
2:53 am 02:53 Clear 64 17.8 49 9.4 58 58 NE 10 17 29.74 1007 10 16 0.00 0.00
3:53 am 03:53 Clear 64 17.8 46 7.8 52 52 E 5 7 29.71 1006 10 16 0.00 0.00
4:53 am 04:53 Clear 66 18.9 41 5 40 40 ESE 9 15 29.70 1006 10 16 0.00 0.00
5:53 am 05:53 Clear 64 17.8 41 5 43 43 SE 9 15 29.70 1006 10 16 0.00 0.00
6:53 am 06:53 Clear 63 17.2 42 5.6 47 47 SE 8 13 29.71 1006 10 16 0.00 0.00
7:53 am 07:53 Sunny 64 17.8 44 6.7 48 48 SE 8 13 29.72 1007 10 16 0.00 0.00
8:53 am 08:53 Sunny 70 21.1 47 8.3 44 44 SE 10 17 29.75 1007 10 16 0.00 0.00
9:53 am 09:53 Sunny 74 23.3 49 9.4 41 41 SSE 10 17 29.75 1007 10 16 0.00 0.00
10:53 am 10:53 Sunny 82 27.8 50 10 33 33 SW 9 15 29.72 1007 10 16 0.00 0.00
11:53 am 11:53 Sunny 86 30 49 9.4 28 28 SW 13 20 29.71 1006 10 16 0.00 0.00
12:53 pm 12:53 Sunny 93 33.9 38 3.3 14 14 W 12 19 29.67 1005 10 16 0.00 0.00
1:53 pm 13:53 Sunny 95 35 30 -1.1 10 10 W 23 37 29.63 1004 10 16 0.00 0.00
2:53 pm 14:53 Sunny 98 36.7 31 -0.6 9 9 W 18 30 29.61 1003 10 16 0.00 0.00
3:53 pm 15:53 Sunny 96 35.6 29 -1.7 9 9 W 17 28 29.59 1002 10 16 0.00 0.00
4:53 pm 16:53 Sunny 97 36.1 22 -5.6 7 7 W 20 31 29.56 1001 10 16 0.00 0.00
5:53 pm 17:53 Sunny 96 35.6 13 -10.6 5 5 W 24 39 29.55 1001 10 16 0.00 0.00
6:53 pm 18:53 Sunny 94 34.4 15 -9.4 5 5 W 22 35 29.57 1001 10 16 0.00 0.00
7:53 pm 19:53 Sunny 91 32.8 15 -9.4 6 6 W 18 30 29.57 1001 10 16 0.00 0.00
8:53 pm 20:53 Clear 86 30 16 -8.9 7 7 W 10 17 29.58 1002 10 16 0.00 0.00
9:53 pm 21:53 Clear 77 25 17 -8.3 10 10 WNW 8 13 29.61 1003 10 16 0.00 0.00
10:53 pm 22:53 Clear 75 23.9 17 -8.3 11 11 W 9 15 29.62 1003 10 16 0.00 0.00
11:53 pm 23:53 Partly Cloudy 72 22.2 18 -7.8 13 13 W 12 19 29.63 1003 10 16 0.00 0.00

Powered by AerisWeather